| time (UTC) | temp F | wind direction | speed MPH | gust MPH | rain 1hr in | rain 24hr in | rain mn in | humidity % | barometer mb |
| 20260831013016 | 82 | 24 | 1.0 | 0.0 | 0.00 | 0.00 | 0.00 | 18 | 1002.8 |
| 20260831011516 | 82 | 23 | 3.0 | 0.0 | 0.00 | 0.00 | 0.00 | 16 | 1002.8 |
| 20260831010015 | 83 | 37 | 3.0 | 0.0 | 0.00 | 0.00 | 0.00 | 16 | 1002.8 |
| 20260831004515 | 83 | 350 | 4.0 | 0.0 | 0.00 | 0.00 | 0.00 | 16 | 1002.8 |
| 20260831003019 | 83 | 11 | 4.0 | 0.0 | 0.00 | 0.00 | 0.00 | 15 | 1002.9 |
| 20260831001514 | 84 | 340 | 3.0 | 0.0 | 0.00 | 0.00 | 0.00 | 15 | 1002.9 |
| 20260831000020 | 84 | 178 | 7.0 | 0.0 | 0.00 | 0.00 | 0.00 | 14 | 1002.8 |
| 20260830234513 | 84 | 149 | 7.0 | 0.0 | 0.00 | 0.00 | 0.00 | 13 | 1002.8 |
| 20260830233012 | 84 | 246 | 6.0 | 0.0 | 0.00 | 0.00 | 0.00 | 14 | 1003.0 |
| 20260830231515 | 84 | 144 | 7.0 | 0.0 | 0.00 | 0.00 | 0.00 | 14 | 1003.1 |
| 20260830230008 | 84 | 118 | 8.0 | 0.0 | 0.00 | 0.00 | 0.00 | 12 | 1003.4 |
| 20260830224506 | 83 | 219 | 8.0 | 0.0 | 0.00 | 0.00 | 0.00 | 14 | 1003.7 |
| 20260830223006 | 83 | 103 | 6.0 | 0.0 | 0.00 | 0.00 | 0.00 | 14 | 1003.9 |
| 20260830221503 | 83 | 160 | 7.0 | 0.0 | 0.00 | 0.00 | 0.00 | 15 | 1004.2 |
| 20260830220100 | 83 | 168 | 7.0 | 0.0 | 0.00 | 0.00 | 0.00 | 14 | 1004.6 |
| 20260830214601 | 82 | 93 | 4.0 | 0.0 | 0.00 | 0.00 | 0.00 | 15 | 1004.7 |
| 20260830213105 | 82 | 341 | 4.0 | 0.0 | 0.00 | 0.00 | 0.00 | 15 | 1005.0 |
| 20260830211554 | 81 | 259 | 4.0 | 0.0 | 0.00 | 0.00 | 0.00 | 15 | 1005.0 |
| 20260830210050 | 81 | 170 | 5.0 | 0.0 | 0.00 | 0.00 | 0.00 | 15 | 1005.3 |
| 20260830204549 | 80 | 184 | 6.0 | 0.0 | 0.00 | 0.00 | 0.00 | 15 | 1005.4 |
| 20260830203049 | 80 | 153 | 4.0 | 0.0 | 0.00 | 0.00 | 0.00 | 15 | 1005.5 |
| 20260830201543 | 78 | 187 | 2.0 | 0.0 | 0.00 | 0.00 | 0.00 | 17 | 1005.7 |
| 20260830200041 | 78 | 79 | 3.0 | 0.0 | 0.00 | 0.00 | 0.00 | 19 | 1005.7 |
| 20260830194539 | 77 | 71 | 3.0 | 0.0 | 0.00 | 0.00 | 0.00 | 20 | 1006.1 |
| 20260830193037 | 76 | 99 | 4.0 | 0.0 | 0.00 | 0.00 | 0.00 | 20 | 1006.2 |
| 20260830191535 | 75 | 57 | 4.0 | 0.0 | 0.00 | 0.00 | 0.00 | 22 | 1006.3 |
| 20260830190030 | 74 | 72 | 4.0 | 0.0 | 0.00 | 0.00 | 0.00 | 23 | 1006.6 |
| 20260830184537 | 73 | 63 | 3.0 | 0.0 | 0.00 | 0.00 | 0.00 | 24 | 1006.9 |
| 20260830183025 | 72 | 32 | 4.0 | 0.0 | 0.00 | 0.00 | 0.00 | 26 | 1007.1 |
| 20260830181523 | 71 | 71 | 2.0 | 0.0 | 0.00 | 0.00 | 0.00 | 26 | 1007.2 |
| 20260830180020 | 70 | 55 | 3.0 | 0.0 | 0.00 | 0.00 | 0.00 | 28 | 1007.5 |
| 20260830174518 | 69 | 48 | 3.0 | 0.0 | 0.00 | 0.00 | 0.00 | 28 | 1007.4 |
| 20260830173014 | 68 | 49 | 3.0 | 0.0 | 0.00 | 0.00 | 0.00 | 30 | 1007.6 |
| 20260830171510 | 67 | 56 | 2.0 | 0.0 | 0.00 | 0.00 | 0.00 | 34 | 1007.6 |
| 20260830170007 | 65 | 46 | 3.0 | 0.0 | 0.00 | 0.00 | 0.00 | 36 | 1007.8 |
| 20260830164504 | 65 | 40 | 2.0 | 0.0 | 0.00 | 0.00 | 0.00 | 37 | 1007.6 |
| 20260830163103 | 64 | 38 | 2.0 | 0.0 | 0.00 | 0.00 | 0.00 | 39 | 1007.7 |
| 20260830161619 | 63 | 37 | 2.0 | 0.0 | 0.00 | 0.00 | 0.00 | 42 | 1007.7 |
| 20260830160053 | 61 | 37 | 2.0 | 0.0 | 0.00 | 0.00 | 0.00 | 45 | 1007.7 |
| 20260830154552 | 61 | 30 | 3.0 | 0.0 | 0.00 | 0.00 | 0.00 | 44 | 1007.7 |
| 20260830153051 | 61 | 271 | 2.0 | 0.0 | 0.00 | 0.00 | 0.00 | 44 | 1007.7 |
| 20260830151548 | 60 | 261 | 2.0 | 0.0 | 0.00 | 0.00 | 0.00 | 43 | 1007.8 |
| 20260830150111 | 59 | 261 | 1.0 | 0.0 | 0.00 | 0.00 | 0.00 | 44 | 1007.7 |
| 20260830144544 | 58 | 260 | 1.0 | 0.0 | 0.00 | 0.00 | 0.00 | 43 | 1007.6 |
| 20260830143045 | 57 | 260 | 1.0 | 0.0 | 0.00 | 0.00 | 0.00 | 44 | 1007.7 |
| 20260830141542 | 55 | 260 | 1.0 | 0.0 | 0.00 | 0.00 | 0.00 | 45 | 1007.5 |
| 20260830140041 | 54 | 259 | 4.0 | 0.0 | 0.00 | 0.00 | 0.00 | 45 | 1007.4 |
| 20260830134543 | 53 | 250 | 5.0 | 0.0 | 0.00 | 0.00 | 0.00 | 46 | 1007.2 |
| 20260830133044 | 53 | 261 | 5.0 | 0.0 | 0.00 | 0.00 | 0.00 | 47 | 1007.1 |
| 20260830131536 | 52 | 261 | 4.0 | 0.0 | 0.00 | 0.00 | 0.00 | 48 | 1007.0 |
| 20260830130035 | 52 | 254 | 4.0 | 0.0 | 0.00 | 0.00 | 0.00 | 49 | 1007.1 |
| 20260830124532 | 51 | 259 | 4.0 | 0.0 | 0.00 | 0.00 | 0.00 | 50 | 1007.0 |
| 20260830123030 | 52 | 258 | 3.0 | 0.0 | 0.00 | 0.00 | 0.00 | 49 | 1006.9 |
| 20260830121528 | 52 | 257 | 3.0 | 0.0 | 0.00 | 0.00 | 0.00 | 49 | 1006.8 |
| 20260830120027 | 52 | 259 | 4.0 | 0.0 | 0.00 | 0.00 | 0.00 | 50 | 1006.7 |
| 20260830114525 | 53 | 253 | 4.0 | 0.0 | 0.00 | 0.00 | 0.00 | 49 | 1006.6 |
| 20260830113025 | 53 | 252 | 4.0 | 0.0 | 0.00 | 0.00 | 0.00 | 48 | 1006.6 |
| 20260830111524 | 53 | 256 | 4.0 | 0.0 | 0.00 | 0.00 | 0.00 | 49 | 1006.5 |
| 20260830110027 | 52 | 253 | 3.0 | 0.0 | 0.00 | 0.00 | 0.00 | 50 | 1006.4 |
| 20260830104521 | 52 | 253 | 3.0 | 0.0 | 0.00 | 0.00 | 0.00 | 50 | 1006.4 |
| 20260830103019 | 52 | 252 | 4.0 | 0.0 | 0.00 | 0.00 | 0.00 | 49 | 1006.4 |
| 20260830101535 | 53 | 254 | 4.0 | 0.0 | 0.00 | 0.00 | 0.00 | 49 | 1006.4 |
| 20260830100017 | 53 | 252 | 4.0 | 0.0 | 0.00 | 0.00 | 0.00 | 49 | 1006.4 |
| 20260830094516 | 53 | 255 | 4.0 | 0.0 | 0.00 | 0.00 | 0.00 | 48 | 1006.3 |
| 20260830093011 | 54 | 255 | 3.0 | 0.0 | 0.00 | 0.00 | 0.00 | 47 | 1006.3 |
| 20260830091509 | 54 | 254 | 3.0 | 0.0 | 0.00 | 0.00 | 0.00 | 46 | 1006.1 |
| 20260830090022 | 55 | 254 | 4.0 | 0.0 | 0.00 | 0.00 | 0.00 | 46 | 1005.8 |
| 20260830084518 | 54 | 262 | 4.0 | 0.0 | 0.00 | 0.00 | 0.00 | 46 | 1005.8 |
| 20260830083007 | 55 | 244 | 4.0 | 0.0 | 0.00 | 0.00 | 0.00 | 46 | 1005.8 |
| 20260830081601 | 55 | 244 | 3.0 | 0.0 | 0.00 | 0.00 | 0.00 | 46 | 1005.8 |
| 20260830074616 | 56 | 279 | 5.0 | 0.0 | 0.00 | 0.00 | 0.00 | 45 | 1005.6 |
| 20260830073055 | 56 | 274 | 4.0 | 0.0 | 0.00 | 0.00 | 0.00 | 44 | 1005.5 |
| 20260830071558 | 58 | 275 | 3.0 | 0.0 | 0.00 | 0.00 | 0.00 | 42 | 1005.9 |
| 20260830070049 | 59 | 274 | 4.0 | 0.0 | 0.00 | 0.00 | 0.00 | 41 | 1005.6 |
| 20260830064548 | 59 | 305 | 6.0 | 0.0 | 0.00 | 0.00 | 0.00 | 41 | 1005.4 |
| 20260830063051 | 59 | 270 | 3.0 | 0.0 | 0.00 | 0.00 | 0.00 | 39 | 1005.3 |
| 20260830061547 | 60 | 257 | 6.0 | 0.0 | 0.00 | 0.00 | 0.00 | 37 | 1005.4 |
| 20260830060047 | 62 | 281 | 5.0 | 0.0 | 0.00 | 0.00 | 0.00 | 36 | 1005.6 |
| 20260830054548 | 64 | 152 | 1.0 | 0.0 | 0.00 | 0.00 | 0.00 | 36 | 1005.6 |
| 20260830053046 | 65 | 150 | 5.0 | 0.0 | 0.00 | 0.00 | 0.00 | 35 | 1005.6 |
| 20260830051546 | 65 | 177 | 7.0 | 0.0 | 0.00 | 0.00 | 0.00 | 33 | 1005.6 |
| 20260830050050 | 64 | 150 | 5.0 | 0.0 | 0.00 | 0.00 | 0.00 | 33 | 1005.7 |
| 20260830044608 | 64 | 116 | 2.0 | 0.0 | 0.00 | 0.00 | 0.00 | 31 | 1005.8 |
| 20260830043044 | 63 | 95 | 2.0 | 0.0 | 0.00 | 0.00 | 0.00 | 29 | 1005.8 |
| 20260830041602 | 62 | 258 | 1.0 | 0.0 | 0.00 | 0.00 | 0.00 | 28 | 1005.6 |
| 20260830040045 | 62 | 254 | 0.0 | 0.0 | 0.00 | 0.00 | 0.00 | 29 | 1005.5 |
| 20260830034555 | 64 | 254 | 1.0 | 0.0 | 0.00 | 0.00 | 0.00 | 27 | 1005.3 |
| 20260830033042 | 66 | 254 | 3.0 | 0.0 | 0.00 | 0.00 | 0.00 | 25 | 1005.0 |
| 20260830031542 | 67 | 250 | 4.0 | 0.0 | 0.00 | 0.00 | 0.00 | 24 | 1004.8 |
| 20260830024541 | 69 | 246 | 4.0 | 0.0 | 0.00 | 0.00 | 0.00 | 23 | 1004.6 |
| 20260830023041 | 70 | 265 | 5.0 | 0.0 | 0.00 | 0.00 | 0.00 | 22 | 1004.7 |
| 20260830021542 | 72 | 235 | 7.0 | 0.0 | 0.00 | 0.00 | 0.00 | 20 | 1004.7 |
| 20260830020042 | 73 | 254 | 9.0 | 0.0 | 0.00 | 0.00 | 0.00 | 18 | 1004.5 |
| 20260830014602 | 75 | 235 | 9.0 | 0.0 | 0.00 | 0.00 | 0.00 | 18 | 1004.5 |